Location: Aalsum
(53.3404°N, 6.0062°E)
Time: 04:21:29
(UTC+00:00)

Cosmos 1544 Rocket - Pass Details

Date: 28 January 2023
Orbit: 604 x 628 km, 82.5° (Epoch: 24 March)

Event Time Altitude Azimuth Distance (km) Brightness Sun altitude
Rises 17:16:59 0° 350° (N) 2,879 6.9 -9.8°
Reaches altitude 10° 17:19:14 10° 354° (N) 1,968 6.0 -10.2°
Maximum altitude 17:23:33 65° 77° (ENE) 668 3.5 -10.8°
Drops below altitude 10° 17:27:51 10° 159° (SSE) 1,950 6.1 -11.4°
Sets 17:30:04 0° 163° (SSE) 2,850 6.9 -11.7°
